Orbital Elements at Epoch 2459000.5 (2020-May-31.0) TDB
Reference: JPL 27 (heliocentric ecliptic J2000)
Element | Value | Uncertainty (1-sigma) | Units |
e | .1520284578426172 | 3.1026e-08 | |
a | 2.585931191070624 | 1.0636e-08 | au |
q | 2.192796060005035 | 8.206e-08 | au |
i | 1.462942524144769 | 3.8168e-06 | deg |
node | 342.6551653425959 | 0.00012601 | deg |
peri | 51.00584806273356 | 0.00012674 | deg |
M | 178.9585110963499 | 1.5562e-05 | deg |
tp | 2458245.453444242759 (2018-May-06.95344424) | 6.2821e-05 | TDB |
period | 1518.881434626278 4.16 | 9.3707e-06 2.566e-08 | d yr |
n | .2370165253146163 | 1.4623e-09 | deg/d |
Q | 2.979066322136213 | 1.2253e-08 | au |
|
| | Orbit Determination Parameters
Additional Information
|